Santuari del Coll - Susqueda (La Selva)





Hora UTC 09:00
Temperatura 5.7 ºC
Humitat 95.0 %
Pressió 1000.8 hPa
Pluja 0.6 mm
Velocitat vent 3.2 km/h
Direcció vent SW

Dades diàries 2022-12-10



Hora UTC (hivern +1h; estiu +2h)
Temperatura (ºC) Humitat (%) Pressió (hPa) Velocitat vent (km/h) Precipitació (mm)
Hora UTC Aire Humitat Pressió Vel. Dir. Vel. Max Dir. Intent. màx 5 min.
00:05 6.1 94.0 998.5 4.8 SE 4.8 0.0
00:10 6.1 94.0 998.5 3.2 SE 11.3 0.2
00:15 6.1 94.0 998.4 6.4 SE 11.3 0.0
00:20 6.1 94.0 998.3 4.8 SE 8.0 0.0
00:25 6.1 94.0 998.4 3.2 ESE 9.7 0.0
00:30 6.0 94.0 998.4 4.8 ESE 8.0 0.0
00:35 6.0 94.0 998.3 3.2 SE 8.0 0.0
00:40 6.0 94.0 998.2 4.8 SE 6.4 0.0
00:45 6.0 94.0 998.2 0.0 SE 6.4 0.0
00:50 6.0 94.0 998.3 1.6 SE 4.8 0.0
00:55 6.0 94.0 998.2 0.0 SE 3.2 0.0
01:00 6.0 94.0 998.3 0.0 SE 3.2 0.0
01:05 6.0 94.0 998.3 0.0 SE 0.0 0.0
01:10 6.1 94.0 998.4 0.0 SE 0.0 0.0
01:15 6.1 94.0 998.4 0.0 SE 0.0 0.0
01:20 6.1 94.0 998.3 0.0 SE 0.0 0.0
01:25 6.1 95.0 998.4 0.0 SE 0.0 0.0
01:30 6.1 95.0 998.4 0.0 SE 0.0 0.0
01:35 6.1 95.0 998.4 0.0 SE 0.0 0.0
01:40 6.1 95.0 998.5 0.0 ESE 1.6 0.0
01:45 6.1 95.0 998.6 0.0 ESE 4.8 0.0
01:50 6.1 95.0 998.6 1.6 ESE 4.8 0.2
01:55 6.2 95.0 998.6 3.2 ESE 3.2 0.0
02:00 6.2 95.0 998.7 1.6 E 6.4 0.0
02:05 6.2 95.0 998.7 0.0 E 4.8 0.0
02:10 6.1 95.0 998.8 0.0 E 3.2 0.0
02:15 6.1 95.0 998.8 1.6 E 6.4 0.0
02:20 6.1 95.0 998.8 3.2 E 6.4 0.0
02:25 6.1 95.0 998.8 1.6 E 6.4 0.0
02:30 6.1 95.0 998.8 4.8 ESE 6.4 0.0
02:35 6.0 95.0 998.9 3.2 ESE 6.4 0.0
02:40 6.1 95.0 998.8 4.8 ESE 6.4 0.0
02:45 6.0 95.0 998.8 9.7 ESE 9.7 0.2
02:50 6.0 95.0 998.8 3.2 ESE 11.3 0.0
02:55 6.0 95.0 998.8 3.2 ESE 9.7 0.0
03:00 5.9 95.0 998.8 4.8 E 9.7 0.0
03:05 5.9 95.0 998.8 3.2 ESE 9.7 0.0
03:10 5.9 95.0 998.9 4.8 ESE 9.7 0.0
03:15 5.9 95.0 998.9 8.0 E 11.3 0.0
03:20 5.9 95.0 998.8 4.8 E 11.3 0.0
03:25 5.9 95.0 998.7 4.8 E 11.3 0.0
03:30 5.8 95.0 998.7 3.2 ESE 9.7 0.0
03:35 5.8 95.0 998.8 6.4 SE 11.3 0.0
03:40 5.8 95.0 998.8 4.8 SE 11.3 0.0
03:45 5.8 95.0 998.6 11.3 SE 11.3 0.0
03:50 5.8 95.0 998.5 6.4 SE 11.3 0.0
03:55 5.8 95.0 998.4 4.8 SE 14.5 0.0
04:00 5.8 95.0 998.4 4.8 SSE 12.9 0.0
04:05 5.7 95.0 998.7 1.6 SSE 9.7 0.0
04:10 5.8 95.0 998.7 0.0 SSE 8.0 0.0
04:15 5.8 95.0 998.7 0.0 SSE 3.2 0.0
04:20 5.8 95.0 998.7 0.0 SSE 0.0 0.0
04:25 5.8 95.0 998.6 0.0 SSE 0.0 0.0
04:30 5.7 95.0 998.5 0.0 SSE 1.6 0.0
04:35 5.7 94.0 998.5 3.2 SW 4.8 0.0
04:40 5.6 94.0 998.6 3.2 WSW 4.8 0.0
04:45 5.6 95.0 998.7 4.8 SW 11.3 0.0
04:50 5.5 95.0 998.7 3.2 WSW 11.3 0.0
04:55 5.5 95.0 998.6 1.6 SW 9.7 0.0
05:00 5.5 95.0 998.6 4.8 WSW 9.7 0.0
05:05 5.5 95.0 998.5 4.8 WSW 14.5 0.0
05:10 5.6 95.0 998.5 4.8 WSW 14.5 0.0
05:15 5.6 95.0 998.6 3.2 WSW 14.5 0.0
05:20 5.6 95.0 998.6 8.0 WSW 14.5 0.0
05:25 5.6 95.0 998.6 4.8 WSW 16.1 0.0
05:30 5.6 95.0 998.6 4.8 WSW 17.7 0.0
05:35 5.6 95.0 998.6 8.0 WSW 14.5 0.0
05:40 5.6 95.0 998.6 12.9 WSW 16.1 0.0
05:45 5.6 95.0 998.7 6.4 WSW 17.7 0.0
05:50 5.6 95.0 998.7 6.4 WSW 16.1 0.0
05:55 5.6 95.0 998.7 14.5 WNW 16.1 0.0
06:00 5.6 95.0 998.7 4.8 W 16.1 0.0
06:05 5.6 95.0 998.9 4.8 WSW 17.7 0.0
06:10 5.6 95.0 999.0 14.5 W 22.5 0.0
06:15 5.6 95.0 999.0 6.4 SW 22.5 0.0
06:20 5.6 95.0 999.1 8.0 WSW 19.3 0.0
06:25 5.6 95.0 999.2 11.3 WNW 17.7 0.0
06:30 5.6 95.0 999.2 14.5 W 17.7 0.0
06:35 5.6 95.0 999.1 12.9 W 17.7 0.0
06:40 5.6 95.0 999.2 6.4 WSW 17.7 0.0
06:45 5.6 95.0 999.3 4.8 W 16.1 0.0
06:50 5.7 95.0 999.4 1.6 SW 16.1 0.0
06:55 5.7 95.0 999.5 11.3 W 25.7 0.0
07:00 5.7 95.0 999.5 3.2 WNW 25.7 0.0
07:05 5.7 95.0 999.5 1.6 WNW 19.3 0.0
07:10 5.7 95.0 999.5 3.2 W 19.3 0.0
07:15 5.7 95.0 999.4 4.8 WNW 22.5 0.0
07:20 5.7 95.0 999.4 0.0 WNW 22.5 0.0
07:25 5.7 95.0 999.5 4.8 W 16.1 0.0
07:30 5.7 95.0 999.5 8.0 WNW 24.1 0.0
07:30 5.7 95.0 999.6 30.6 W 30.6 0.0
07:35 5.7 95.0 999.8 20.9 W 32.2 0.0
07:40 5.7 95.0 999.9 19.3 WNW 32.2 0.0
07:45 5.7 95.0 1000.0 1.6 WSW 24.1 0.0
07:50 5.6 95.0 1000.1 3.2 NW 17.7 0.0
07:55 5.6 95.0 1000.1 3.2 E 11.3 0.0
08:00 5.7 95.0 1000.1 3.2 ENE 6.4 0.0
08:05 5.7 95.0 1000.1 1.6 WSW 14.5 0.0
08:15 5.7 95.0 1000.2 0.0 W 14.5 0.0
08:20 5.7 95.0 1000.2 1.6 SSW 9.7 0.0
08:25 5.7 95.0 1000.4 6.4 S 6.4 0.0
08:30 5.7 95.0 1000.3 4.8 WSW 11.3 0.0
08:35 5.7 96.0 1000.5 0.0 SSW 11.3 0.0
08:40 5.7 95.0 1000.6 0.0 SW 8.0 0.0
08:45 5.7 95.0 1000.7 3.2 SW 8.0 0.0
08:50 5.7 96.0 1000.8 1.6 S 12.9 0.0
08:55 5.7 95.0 1000.9 1.6 SSW 12.9 0.0
09:00 5.7 95.0 1000.8 3.2 SW 4.8 0.0
Màxima 6.2 96.0 1000.9 30.6 W 32.2 0.2
Mínima 5.5 94.0 998.2
Total 0.6